[[{"header":{"parameterUnit":"m.s-1","parameterCategory":1,"la1":30.2991,"la2":30.254,"lo1":-89.0895,"lo2":-89.0444,"dy":0.0017,"dx":0.0017,"nx":28,"ny":28,"refTime":"2025-08-03T09:00:00:Z","depth":0,"parameterNumber":2,"parameterNumberName":"U-component_of_WINDS"},"data":[0,0,0,0,0,0,0,0,0,0,0,0,0,0,0,0,0,0,0,0,0,0,0,0,0,0,0,0,0,0,0,0,0,0,0,0,0,0,0,0,0,0,0,0,0,0,0,0,0,0,0,0,0,0,0,0,0,0,-0.6717,-0.6717,0,-0.6713,-0.6713,-0.6713,-0.6678,-0.6677,-0.6676,-0.6675,-0.6672,-0.6673,-0.6674,0,0,0,0,0,0,0,0,0,0,0,0,0,-0.6695,-0.6695,-0.6717,-0.6717,-0.6717,-0.6713,-0.6713,-0.6713,-0.6678,-0.6677,-0.6676,-0.6675,-0.6672,-0.6673,-0.6674,0,0,0,0,0,0,0,0,0,0,0,0,0,-0.6699,-0.6695,-0.6717,-0.6699,-0.6697,-0.6713,-0.6713,-0.6713,-0.6678,-0.6677,-0.6676,-0.6674,-0.6672,-0.6673,-0.6674,-0.6707,0,0,-0.6677,-0.6678,0,0,0,0,0,0,0,0,-0.6699,-0.67,-0.6702,-0.67,-0.6698,-0.6695,-0.6704,-0.6711,-0.6679,-0.6686,-0.6675,-0.6674,-0.6681,-0.6681,-0.6683,-0.6707,-0.6707,-0.6677,-0.6678,-0.6679,-0.6679,0,0,0,0,0,0,0,-0.6699,-0.67,-0.6716,-0.6702,-0.67,-0.6691,-0.669,-0.6705,-0.6691,-0.6685,-0.6682,-0.6682,-0.668,-0.6682,-0.6683,-0.6707,-0.6677,-0.6678,-0.6679,-0.6679,-0.6757,-0.6758,0,0,0,0,0,0,-0.6701,-0.67,-0.6716,-0.6715,-0.6695,-0.6693,-0.6692,-0.6697,-0.669,-0.6688,-0.6683,-0.6681,-0.6681,-0.6682,-0.6683,-0.6721,-0.6679,-0.668,-0.668,-0.6756,-0.6757,-0.6759,0,0,0,0,0,0,-0.67,-0.6702,-0.6716,-0.6707,-0.6708,-0.6694,-0.6701,-0.6698,-0.67,-0.6689,-0.6687,-0.6689,-0.668,-0.6681,-0.6701,-0.6721,-0.668,-0.6681,-0.6754,-0.6756,-0.6758,-0.6799,0,0,0,0,0,0,-0.67,-0.6703,-0.6715,-0.6707,-0.6709,-0.6734,-0.6702,-0.6699,-0.6702,-0.6699,-0.6694,-0.6691,-0.6679,-0.67,-0.6702,-0.6722,-0.6682,-0.6752,-0.6755,-0.6758,-0.6796,-0.6802,-0.6808,0,0,0,0,0,-0.6699,-0.6727,-0.6716,-0.6718,-0.6724,-0.6736,-0.6736,-0.6721,-0.6704,-0.6717,-0.6709,-0.6692,-0.6718,-0.6702,-0.6705,-0.6725,-0.6751,-0.6754,-0.6757,-0.6793,-0.6801,-0.6807,0,0,0,0,0,0,-0.6738,-0.6726,-0.6713,-0.6739,-0.6739,-0.673,-0.6745,-0.673,-0.6735,-0.6731,-0.6712,-0.6711,-0.6734,-0.6731,-0.6714,-0.6756,-0.6731,-0.6735,-0.6758,-0.6765,-0.6771,-0.6772,-0.6683,0,0,0,0,0,-0.6749,-0.676,-0.6748,-0.6772,-0.6773,-0.6759,-0.6763,-0.6752,-0.6751,-0.675,-0.6744,-0.6744,-0.6752,-0.6758,-0.6765,-0.6794,-0.6793,-0.6809,-0.6815,-0.682,-0.6824,-0.684,-0.6847,-0.6769,-0.6769,-0.6769,0,0,-0.6773,-0.6768,-0.6776,-0.678,-0.6778,-0.679,-0.6759,-0.6772,-0.6781,-0.6752,-0.6771,-0.6767,-0.6765,-0.679,-0.6801,-0.6788,-0.6845,-0.6824,-0.6828,-0.683,-0.6844,-0.6851,-0.6858,-0.6771,-0.6771,-0.6771,0,0,-0.6823,-0.682,-0.684,-0.6838,-0.6835,-0.6826,-0.683,-0.6823,-0.6819,-0.6838,-0.6816,-0.6826,-0.684,-0.684,-0.6842,-0.689,-0.6875,-0.6893,-0.6924,-0.694,-0.6946,-0.6951,-0.697,-0.6976,-0.6897,-0.6897,-0.6897,0,-0.6854,-0.687,-0.6852,-0.6866,-0.6869,-0.6843,-0.6863,-0.6862,-0.6862,-0.6865,-0.685,-0.6868,-0.6865,-0.6889,-0.6901,-0.6903,-0.6908,-0.6894,-0.6946,-0.6952,-0.6956,-0.6974,-0.698,-0.6899,-0.6899,-0.6899,-0.6898,0,-0.6908,-0.6919,-0.6935,-0.6935,-0.694,-0.6957,-0.6942,-0.6948,-0.6935,-0.6928,-0.6946,-0.6941,-0.6947,-0.6952,-0.694,-0.6975,-0.6967,-0.695,-0.6925,-0.6967,-0.6982,-0.6989,-0.6902,-0.6902,-0.6901,-0.69,0,0,-0.6984,-0.6972,-0.6979,-0.6978,-0.6973,-0.6982,-0.6997,-0.7002,-0.7008,-0.7009,-0.7022,-0.7034,-0.7018,-0.702,-0.7007,-0.7021,-0.706,-0.7002,-0.7002,-0.7014,-0.7099,-0.7113,-0.7121,-0.7049,-0.705,-0.7051,-0.71,0,-0.7032,-0.7059,-0.7043,-0.7072,-0.7082,-0.7057,-0.707,-0.7069,-0.7061,-0.7069,-0.7061,-0.707,-0.7048,-0.7049,-0.7061,-0.7053,-0.7077,-0.7049,-0.7062,-0.7063,-0.7065,-0.7129,-0.7144,-0.7191,-0.7106,-0.7107,-0.7107,0,-0.7093,-0.7096,-0.7126,-0.7118,-0.7122,-0.7134,-0.7137,-0.7145,-0.7142,-0.7136,-0.7138,-0.7122,-0.7137,-0.7111,-0.7132,-0.7113,-0.7117,-0.7114,-0.7115,-0.7117,-0.7089,-0.7134,-0.7205,-0.7212,-0.7117,-0.7116,-0.7115,0,-0.7147,-0.7158,-0.7177,-0.7177,-0.7168,-0.7178,-0.7175,-0.717,-0.7174,-0.7177,-0.7179,-0.7183,-0.7186,-0.719,-0.7175,-0.7158,-0.7198,-0.7171,-0.7194,-0.7195,-0.7206,-0.7205,-0.7279,-0.7206,-0.7206,-0.7205,-0.7205,0,-0.7204,-0.7224,-0.7201,-0.7213,-0.7234,-0.7215,-0.7237,-0.7231,-0.7227,-0.7238,-0.7215,-0.7226,-0.7206,-0.7214,-0.7203,-0.7222,-0.7223,-0.7219,-0.7216,-0.7222,-0.7223,-0.7226,-0.7223,-0.7207,-0.7207,-0.7206,-0.7206,0,-0.7268,-0.7254,-0.7274,-0.7263,-0.726,-0.7277,-0.7268,-0.7279,-0.7269,-0.7283,-0.7285,-0.727,-0.7279,-0.7264,-0.7272,-0.7264,-0.7291,-0.7283,-0.7292,-0.729,-0.7315,-0.7313,-0.7395,-0.7405,-0.7323,-0.7324,-0.7325,0,-0.7307,-0.7321,-0.7312,-0.7317,-0.7315,-0.7324,-0.7327,-0.7308,-0.7313,-0.731,-0.7322,-0.7328,-0.7333,-0.7348,-0.7338,-0.7344,-0.7336,-0.7364,-0.7337,-0.7342,-0.7338,-0.7338,-0.734,-0.737,-0.7371,-0.7372,-0.7373,0,-0.7377,-0.7368,-0.7374,-0.7377,-0.7382,-0.7383,-0.7384,-0.7389,-0.7369,-0.7375,-0.7384,-0.7387,-0.7394,-0.7401,-0.7404,-0.7401,-0.7384,-0.7381,-0.7387,-0.7394,-0.7399,-0.7398,-0.7309,-0.738,-0.7379,-0.7378,-0.7378,-0.7378,-0.743,-0.7442,-0.7437,-0.7444,-0.7441,-0.7442,-0.7452,-0.7443,-0.7449,-0.7453,-0.7441,-0.7453,-0.7449,-0.7451,-0.7449,-0.7458,-0.7446,-0.7454,-0.7456,-0.7459,-0.7464,-0.7396,-0.7458,-0.7458,-0.7458,-0.7457,-0.7457,0,-0.75,-0.7495,-0.7501,-0.7502,-0.7507,-0.7489,-0.7488,-0.7494,-0.7504,-0.7502,-0.7506,-0.7516,-0.7523,-0.7513,-0.7518,-0.7527,-0.7519,-0.7529,-0.7529,-0.7529,-0.7474,-0.7469,-0.7535,-0.7535,-0.7535,-0.7535,-0.7535,-0.7535,-0.7537,-0.7556,-0.7547,-0.7564,-0.7559,-0.757,-0.7571,-0.7571,-0.7569,-0.7581,-0.7586,-0.7579,-0.7574,-0.7578,-0.7584,-0.758,-0.7584,-0.7597,-0.7592,-0.754,-0.7533,-0.7526,-0.7521,-0.7598,-0.7598,-0.7646,-0.7647,-0.7647]},{"header":{"parameterUnit":"m.s-1","parameterCategory":1,"la1":30.2991,"la2":30.254,"lo1":-89.0895,"lo2":-89.0444,"dy":0.0017,"dx":0.0017,"nx":28,"ny":28,"refTime":"2025-08-03T09:00:00:Z","depth":0,"parameterNumber":3,"parameterNumberName":"V-component_of_WINDS"},"data":[0,0,0,0,0,0,0,0,0,0,0,0,0,0,0,0,0,0,0,0,0,0,0,0,0,0,0,0,0,0,0,0,0,0,0,0,0,0,0,0,0,0,0,0,0,0,0,0,0,0,0,0,0,0,0,0,0,0,-3.3443,-3.3443,0,-3.3467,-3.3468,-3.3468,-3.3437,-3.3436,-3.3435,-3.3434,-3.3456,-3.3458,-3.3459,0,0,0,0,0,0,0,0,0,0,0,0,0,-3.3367,-3.3369,-3.3443,-3.3443,-3.3443,-3.3467,-3.3468,-3.3468,-3.3438,-3.3436,-3.3435,-3.3434,-3.3456,-3.3458,-3.346,0,0,0,0,0,0,0,0,0,0,0,0,0,-3.3397,-3.3369,-3.3443,-3.3431,-3.343,-3.3467,-3.3468,-3.3468,-3.3438,-3.3436,-3.3435,-3.3433,-3.3455,-3.3457,-3.346,-3.3508,0,0,-3.3467,-3.3468,0,0,0,0,0,0,0,0,-3.3395,-3.34,-3.3433,-3.3432,-3.3431,-3.3448,-3.3449,-3.3481,-3.3438,-3.3435,-3.3434,-3.3432,-3.3455,-3.3457,-3.3465,-3.3509,-3.351,-3.3468,-3.3469,-3.347,-3.3471,0,0,0,0,0,0,0,-3.3393,-3.3398,-3.3452,-3.3433,-3.3432,-3.3424,-3.3427,-3.3455,-3.3454,-3.3435,-3.3433,-3.3437,-3.3454,-3.3463,-3.3465,-3.351,-3.3467,-3.347,-3.3471,-3.3472,-3.3598,-3.3599,0,0,0,0,0,0,-3.3393,-3.3397,-3.3452,-3.3453,-3.3409,-3.3427,-3.343,-3.3444,-3.3453,-3.3453,-3.3438,-3.3435,-3.346,-3.3463,-3.3466,-3.3525,-3.347,-3.3472,-3.3474,-3.3596,-3.3598,-3.36,0,0,0,0,0,0,-3.3391,-3.3398,-3.3451,-3.3424,-3.3431,-3.343,-3.3447,-3.3445,-3.3454,-3.3456,-3.3455,-3.3448,-3.3458,-3.3463,-3.3499,-3.3525,-3.3473,-3.3476,-3.3594,-3.3597,-3.3599,-3.3642,0,0,0,0,0,0,-3.3389,-3.3398,-3.3416,-3.3425,-3.3432,-3.3483,-3.3448,-3.3447,-3.3459,-3.3456,-3.3464,-3.3464,-3.3457,-3.3495,-3.3501,-3.3528,-3.3478,-3.3591,-3.3595,-3.3598,-3.3639,-3.3646,-3.3653,0,0,0,0,0,-3.3387,-3.3426,-3.3417,-3.3424,-3.3456,-3.3485,-3.3489,-3.3481,-3.3461,-3.348,-3.3481,-3.3464,-3.3521,-3.3499,-3.3506,-3.3533,-3.359,-3.3594,-3.3598,-3.3635,-3.3645,-3.3653,0,0,0,0,0,0,-3.3419,-3.3427,-3.3417,-3.3461,-3.3473,-3.348,-3.3503,-3.3491,-3.3508,-3.3504,-3.3492,-3.3494,-3.3534,-3.3536,-3.3512,-3.3582,-3.3552,-3.3558,-3.3578,-3.3587,-3.3594,-3.3593,-3.348,0,0,0,0,0,-3.3431,-3.3455,-3.3461,-3.3499,-3.3505,-3.3504,-3.3516,-3.3509,-3.352,-3.3525,-3.3528,-3.3539,-3.356,-3.3573,-3.3592,-3.3639,-3.3641,-3.3661,-3.3668,-3.3674,-3.3679,-3.3706,-3.3715,-3.3614,-3.3614,-3.3614,0,0,-3.3456,-3.3464,-3.348,-3.3506,-3.3514,-3.3539,-3.3508,-3.3535,-3.3553,-3.3528,-3.3564,-3.3567,-3.3578,-3.362,-3.3639,-3.3624,-3.3708,-3.3679,-3.3684,-3.3686,-3.3711,-3.3721,-3.3729,-3.3617,-3.3616,-3.3616,0,0,-3.3516,-3.3524,-3.3557,-3.3567,-3.3581,-3.358,-3.3588,-3.3597,-3.3599,-3.3634,-3.3617,-3.3638,-3.3673,-3.3683,-3.3692,-3.3758,-3.3743,-3.3764,-3.3802,-3.3828,-3.3836,-3.3843,-3.3868,-3.3877,-3.3769,-3.3769,-3.3769,0,-3.3545,-3.3584,-3.3576,-3.3606,-3.3618,-3.3598,-3.3633,-3.3642,-3.366,-3.3669,-3.3652,-3.3698,-3.3704,-3.3749,-3.3766,-3.3773,-3.3783,-3.3763,-3.3836,-3.3843,-3.3849,-3.3873,-3.3882,-3.3772,-3.3771,-3.3771,-3.3771,0,-3.362,-3.3647,-3.3672,-3.3693,-3.3708,-3.374,-3.3737,-3.3753,-3.3745,-3.3746,-3.3783,-3.3789,-3.381,-3.382,-3.3812,-3.3865,-3.3856,-3.3837,-3.3808,-3.3861,-3.3884,-3.3892,-3.3775,-3.3775,-3.3774,-3.3773,0,0,-3.3699,-3.3718,-3.3727,-3.3738,-3.3752,-3.3772,-3.3803,-3.3825,-3.384,-3.3854,-3.388,-3.3911,-3.3896,-3.3906,-3.3899,-3.3922,-3.3976,-3.3901,-3.3901,-3.3916,-3.4036,-3.4051,-3.4061,-3.3966,-3.3967,-3.3969,-3.4036,0,-3.3761,-3.3816,-3.3811,-3.3864,-3.3889,-3.3872,-3.3899,-3.3911,-3.3912,-3.3933,-3.3934,-3.3958,-3.3934,-3.3941,-3.3963,-3.3965,-3.4,-3.3959,-3.399,-3.3992,-3.399,-3.4073,-3.4088,-3.415,-3.4044,-3.4045,-3.4047,0,-3.3839,-3.3858,-3.3914,-3.3927,-3.3938,-3.3962,-3.3983,-3.4004,-3.4017,-3.4017,-3.403,-3.4019,-3.4051,-3.402,-3.4063,-3.4036,-3.4048,-3.4051,-3.4054,-3.4057,-3.4023,-3.408,-3.417,-3.418,-3.406,-3.4059,-3.4058,0,-3.3894,-3.3933,-3.3972,-3.3981,-3.3997,-3.4015,-3.4022,-3.4034,-3.4048,-3.4066,-3.4076,-3.4096,-3.4108,-3.4124,-3.4119,-3.4097,-3.4164,-3.4133,-3.4165,-3.4166,-3.4181,-3.418,-3.4276,-3.4187,-3.4186,-3.4186,-3.4186,0,-3.3963,-3.3998,-3.3998,-3.4022,-3.4061,-3.4055,-3.4093,-3.4098,-3.4109,-3.4134,-3.4119,-3.4142,-3.4134,-3.4157,-3.4153,-3.4191,-3.4195,-3.4196,-3.4195,-3.4198,-3.4199,-3.4207,-3.4203,-3.4189,-3.4188,-3.4188,-3.4187,0,-3.4031,-3.4032,-3.4074,-3.4086,-3.409,-3.4119,-3.4129,-3.4152,-3.4153,-3.4184,-3.4191,-3.4192,-3.4219,-3.4216,-3.4244,-3.4242,-3.4289,-3.4282,-3.4285,-3.4284,-3.4318,-3.4315,-3.4423,-3.4438,-3.4338,-3.4339,-3.4339,0,-3.4076,-3.4103,-3.4119,-3.4136,-3.4145,-3.4171,-3.4186,-3.4181,-3.4198,-3.4216,-3.4237,-3.4262,-3.4283,-3.4325,-3.4328,-3.4351,-3.4345,-3.4381,-3.4348,-3.4351,-3.4347,-3.4346,-3.435,-3.4388,-3.4389,-3.439,-3.4391,0,-3.4156,-3.4156,-3.4179,-3.4204,-3.4223,-3.4242,-3.4258,-3.4272,-3.4269,-3.4288,-3.4316,-3.4332,-3.4363,-3.4388,-3.441,-3.4416,-3.4403,-3.4401,-3.441,-3.4414,-3.4416,-3.4418,-3.4305,-3.4399,-3.4398,-3.4397,-3.4397,-3.4397,-3.4215,-3.4239,-3.4256,-3.4283,-3.4295,-3.4312,-3.4335,-3.434,-3.4363,-3.4389,-3.4384,-3.4416,-3.443,-3.4458,-3.4467,-3.4491,-3.4478,-3.449,-3.4494,-3.4497,-3.4502,-3.4412,-3.4495,-3.4494,-3.4494,-3.4494,-3.4494,0,-3.4296,-3.4306,-3.4331,-3.4357,-3.4379,-3.4366,-3.4384,-3.4403,-3.4432,-3.4446,-3.4467,-3.45,-3.4525,-3.4531,-3.4555,-3.4574,-3.4569,-3.4581,-3.458,-3.4582,-3.4512,-3.4503,-3.4585,-3.4585,-3.4585,-3.4585,-3.4585,-3.4585,-3.4341,-3.4382,-3.4384,-3.4432,-3.4441,-3.4473,-3.4485,-3.4501,-3.4513,-3.4551,-3.4573,-3.4577,-3.4588,-3.4613,-3.4636,-3.4637,-3.4647,-3.4662,-3.4661,-3.4596,-3.4586,-3.4578,-3.4569,-3.4664,-3.4664,-3.4729,-3.473,-3.473]}]]